Total_Precipitation_Accumulation
0.01 0.02 0.06 0.20 0.37 0.50 0.51 0.48 0.55 0.66 0.70 0.70 0.69 0.79 0.87 0.87 1.34 2.52 1.86 1.14 0.91 0.73 0.54 0.45 0.46 0.43 0.39 0.36 0.39 0.41 0.40 0.43 0.42 0.36 0.37 0.44 0.47 0.53 0.65 0.73 0.97 1.22 1.43 1.60 1.62 1.78 1.70 1.65 1.66
0.01 0.03 0.08 0.20 0.42 0.54 0.54 0.50 0.64 0.73 0.74 0.67 0.63 0.68 0.75 0.84 0.84 0.99 1.15 0.87 0.69 0.69 0.67 0.51 0.49 0.46 0.38 0.36 0.41 0.44 0.42 0.41 0.40 0.37 0.36 0.40 0.49 0.56 0.66 0.72 0.86 1.20 1.49 1.60 1.56 1.68 1.70 1.64 1.63
0.02 0.05 0.11 0.20 0.38 0.47 0.57 0.55 0.65 0.77 0.76 0.69 0.75 0.87 1.01 0.96 0.95 0.92 0.94 0.78 0.63 0.62 0.62 0.63 0.55 0.51 0.44 0.43 0.46 0.48 0.47 0.43 0.44 0.45 0.45 0.50 0.57 0.58 0.66 0.79 0.89 1.09 1.34 1.55 1.63 1.60 1.69 1.63 1.56
0.03 0.06 0.12 0.18 0.26 0.27 0.33 0.44 0.57 0.75 0.81 0.70 0.75 1.06 1.16 0.90 0.90 0.86 0.86 0.75 0.61 0.67 0.65 0.66 0.63 0.63 0.60 0.56 0.56 0.55 0.50 0.49 0.51 0.52 0.54 0.59 0.66 0.71 0.75 0.96 1.17 1.27 1.42 1.46 1.48 1.50 1.61 1.53 1.41
0.04 0.08 0.14 0.21 0.23 0.22 0.23 0.34 0.55 0.68 0.75 0.70 0.75 1.07 1.40 1.18 0.95 0.87 0.78 0.64 0.59 0.73 0.86 0.72 0.69 0.71 0.74 0.73 0.69 0.67 0.61 0.61 0.61 0.62 0.63 0.65 0.74 0.84 0.87 1.06 1.37 1.57 1.65 1.58 1.48 1.39 1.36 1.26 1.24
0.05 0.09 0.19 0.25 0.21 0.17 0.21 0.25 0.43 0.68 0.77 0.81 0.87 1.26 1.79 1.70 1.25 0.92 0.88 0.74 0.70 0.77 0.84 0.79 0.75 0.77 0.79 0.85 0.90 0.88 0.79 0.75 0.73 0.76 0.74 0.67 0.67 0.77 0.94 1.15 1.41 1.65 1.71 1.60 1.43 1.36 1.27 1.20 1.30
0.07 0.11 0.18 0.24 0.22 0.20 0.23 0.27 0.42 0.58 0.72 0.81 0.86 1.37 1.77 1.71 1.46 1.18 1.07 0.93 0.87 0.87 0.99 1.00 1.04 1.03 1.07 1.16 1.15 1.09 1.02 0.96 0.89 0.84 0.78 0.73 0.72 0.80 0.95 1.21 1.46 1.67 1.74 1.61 1.44 1.39 1.34 1.34 1.43
0.08 0.10 0.12 0.18 0.19 0.23 0.26 0.30 0.40 0.52 0.73 0.76 0.89 1.33 1.77 1.80 1.63 1.67 1.67 1.50 1.35 1.35 1.44 1.47 1.52 1.49 1.39 1.32 1.28 1.22 1.15 1.10 1.03 0.91 0.84 0.86 0.89 1.01 1.19 1.22 1.44 1.70 1.82 1.68 1.58 1.54 1.45 1.46 1.52
0.07 0.09 0.13 0.14 0.16 0.23 0.29 0.36 0.41 0.50 0.67 0.92 0.93 1.07 1.48 1.66 1.78 1.92 2.04 1.92 1.98 2.02 2.00 1.88 1.86 1.79 1.76 1.61 1.39 1.46 1.39 1.34 1.27 1.18 1.10 1.17 1.28 1.48 1.59 1.45 1.72 1.95 1.99 1.89 1.86 1.82 1.73 1.70 1.66
0.10 0.13 0.14 0.11 0.13 0.21 0.28 0.35 0.38 0.53 0.72 1.06 1.14 1.20 1.46 1.70 2.10 2.32 2.25 2.19 2.28 2.55 2.43 2.15 2.22 2.19 2.08 1.93 1.90 1.92 1.76 1.77 1.77 1.78 1.56 1.69 2.08 2.18 1.89 2.11 2.28 2.59 2.51 2.23 2.18 2.09 1.92 1.76 1.73
0.11 0.14 0.11 0.14 0.20 0.24 0.31 0.39 0.44 0.59 0.96 1.25 1.39 1.56 1.71 1.99 2.28 2.52 2.56 2.55 2.56 2.62 2.42 2.49 2.67 2.52 2.56 2.79 2.81 2.58 2.46 2.49 2.36 2.39 2.23 2.32 2.36 2.27 2.31 2.53 2.69 3.00 3.05 2.85 2.67 2.37 2.03 1.96 2.04
0.10 0.11 0.13 0.19 0.26 0.30 0.38 0.49 0.61 0.69 0.96 1.29 1.41 1.77 2.13 2.41 2.54 2.70 2.83 2.75 2.99 2.97 2.66 2.71 2.72 2.70 2.87 3.04 3.23 3.28 3.05 3.04 2.91 2.87 2.67 2.79 2.88 2.92 2.92 3.16 3.33 3.62 3.82 3.83 3.35 2.88 2.71 2.46 2.31
0.07 0.09 0.15 0.25 0.32 0.35 0.46 0.62 0.68 0.79 0.93 1.16 1.43 1.72 1.85 2.15 2.55 3.18 3.24 3.40 3.64 3.51 3.22 3.10 3.20 3.04 3.02 3.32 3.58 3.48 3.54 3.43 3.54 3.55 3.21 3.28 3.29 3.33 3.59 3.69 4.01 4.06 4.18 4.19 3.86 3.26 3.02 2.87 2.61
0.08 0.12 0.19 0.26 0.34 0.44 0.52 0.65 0.69 0.88 1.09 1.21 1.34 1.59 1.89 2.10 2.31 2.85 3.34 3.55 3.79 3.90 3.76 3.55 3.47 3.42 3.33 3.55 3.90 4.05 3.88 3.85 3.82 3.97 3.77 3.67 3.70 3.84 3.96 4.06 4.34 4.23 4.01 4.10 3.88 3.40 3.18 3.01 2.89
0.08 0.16 0.26 0.29 0.32 0.38 0.46 0.71 0.72 0.81 1.14 1.39 1.43 1.57 1.90 2.30 2.58 2.97 3.37 3.76 4.07 4.12 3.93 3.92 3.66 3.88 4.02 4.26 4.32 4.47 4.62 4.54 4.35 4.27 4.32 4.20 4.26 4.41 4.30 4.48 4.67 4.49 4.20 4.20 4.06 3.83 3.47 3.27 3.22
0.15 0.26 0.40 0.39 0.35 0.32 0.47 0.90 0.95 0.91 1.20 1.39 1.58 1.79 2.02 2.33 2.69 3.06 3.35 3.63 3.98 4.08 4.13 4.26 3.98 4.08 4.38 4.46 4.51 4.77 5.14 5.19 4.96 4.72 4.71 4.60 4.74 4.88 4.96 4.83 4.75 4.63 4.39 4.34 4.45 4.17 3.80 3.70 3.70
0.20 0.30 0.41 0.44 0.38 0.38 0.49 0.85 0.94 0.95 1.18 1.32 1.41 1.61 1.84 2.16 2.55 2.92 3.30 3.63 3.88 4.04 4.05 4.29 4.50 4.37 4.62 4.77 4.86 5.12 5.44 5.61 5.44 5.22 5.04 5.05 5.03 4.96 5.13 5.15 5.11 4.93 4.77 4.67 4.34 4.28 4.12 4.07 3.98
0.23 0.24 0.32 0.38 0.36 0.37 0.49 0.73 0.91 0.95 1.21 1.29 1.48 1.50 1.69 2.05 2.44 2.81 3.27 3.70 3.89 4.15 4.27 4.39 4.71 4.75 5.06 5.21 5.08 5.29 5.48 5.55 5.50 5.45 5.38 5.51 5.56 5.35 5.39 5.28 5.23 5.17 5.15 5.01 4.79 4.68 4.60 4.29 4.12
0.21 0.20 0.28 0.35 0.36 0.41 0.57 0.82 1.05 1.14 1.27 1.39 1.62 1.73 2.01 2.17 2.42 2.78 3.23 3.65 4.22 4.43 4.53 4.51 4.65 4.93 5.12 5.27 5.31 5.71 5.77 5.60 5.81 6.04 5.93 6.07 6.12 5.83 5.75 5.62 5.52 5.33 5.20 5.09 4.96 4.80 4.65 4.30 4.14
0.23 0.20 0.30 0.42 0.48 0.56 0.67 0.89 1.12 1.25 1.26 1.56 1.86 1.97 2.46 2.63 2.57 2.80 3.38 3.75 4.16 4.47 4.64 4.88 4.97 5.01 5.15 5.64 6.11 6.51 6.89 6.84 6.74 6.92 6.98 6.74 6.59 6.47 6.21 6.23 5.96 5.61 5.41 5.13 4.89 4.72 4.46 4.08 4.04
0.22 0.27 0.37 0.52 0.52 0.64 0.82 1.31 1.45 1.41 1.47 1.72 2.03 2.23 2.62 2.76 2.90 2.88 3.08 3.42 3.84 4.22 4.48 4.70 4.98 5.36 5.93 6.61 7.10 7.38 7.76 7.91 7.66 7.38 7.23 6.97 6.75 6.53 6.18 5.98 5.90 5.64 5.12 4.90 4.72 4.46 4.32 4.12 3.97
0.18 0.21 0.30 0.38 0.49 0.74 0.86 1.62 1.83 1.72 1.80 1.92 2.15 2.28 2.56 2.47 2.70 2.93 3.00 3.18 3.50 3.79 4.16 4.59 4.98 5.60 6.52 7.24 7.71 8.13 8.30 8.34 8.17 7.86 7.42 7.01 6.60 6.16 5.81 5.59 5.32 5.11 4.79 4.60 4.24 4.12 4.15 4.16 3.92
0.11 0.13 0.21 0.26 0.38 0.63 0.76 1.41 1.88 1.84 2.04 2.13 2.34 2.42 2.45 2.49 2.49 2.64 2.71 2.85 3.20 3.56 3.92 4.36 4.82 5.55 6.30 6.96 7.60 8.14 8.33 8.30 8.03 7.58 7.03 6.52 6.05 5.57 5.13 4.88 4.62 4.36 4.15 3.95 3.66 3.59 3.65 3.76 3.70
0.10 0.16 0.25 0.33 0.55 0.90 0.75 1.20 1.97 2.18 2.30 2.40 2.37 2.48 2.72 2.66 2.49 2.48 2.50 2.61 2.85 3.21 3.58 4.08 4.51 5.04 5.67 6.14 6.76 7.23 7.45 7.38 6.97 6.40 5.79 5.40 5.16 4.90 4.57 4.27 4.04 3.70 3.47 3.28 3.13 3.00 2.96 3.09 3.19
0.13 0.29 0.68 0.88 1.00 1.05 0.76 1.28 2.18 2.36 2.29 2.38 2.53 2.71 2.84 2.84 2.66 2.54 2.51 2.52 2.70 2.98 3.38 3.73 3.93 4.34 4.63 4.97 5.47 5.86 5.94 5.84 5.53 5.24 5.00 4.60 4.16 3.80 3.66 3.45 3.27 3.02 2.90 2.83 2.81 2.76 2.70 2.74 2.80
0.16 0.28 0.76 1.16 1.09 1.06 1.13 1.89 2.56 2.47 2.27 2.21 2.34 2.44 2.52 2.46 2.41 2.40 2.42 2.54 2.68 2.72 2.95 3.19 3.18 3.36 3.60 3.81 4.06 4.20 4.25 4.28 4.27 4.17 3.83 3.48 3.08 2.76 2.74 2.74 2.53 2.45 2.45 2.41 2.51 2.48 2.46 2.53 2.51
0.17 0.26 0.35 0.64 0.75 1.15 1.72 2.33 2.81 2.56 2.49 2.36 2.13 1.98 2.17 2.26 2.26 2.31 2.37 2.51 2.59 2.54 2.49 2.58 2.65 2.69 2.79 2.88 3.05 3.16 3.21 3.36 3.36 3.28 3.09 2.84 2.64 2.38 2.29 2.26 2.24 2.24 2.29 2.28 2.30 2.26 2.16 2.27 2.30
0.17 0.23 0.37 0.68 1.23 1.57 1.93 2.58 3.20 3.15 3.06 2.95 2.58 2.19 2.22 2.29 2.37 2.38 2.32 2.31 2.40 2.28 2.24 2.34 2.43 2.41 2.40 2.34 2.35 2.31 2.48 2.61 2.68 2.60 2.42 2.40 2.38 2.29 2.23 2.13 2.08 2.06 2.01 2.01 2.14 2.10 2.03 2.05 2.05
0.22 0.29 0.41 0.71 0.99 1.57 2.29 3.00 2.93 3.19 3.27 3.11 2.72 2.31 2.29 2.32 2.40 2.41 2.44 2.29 2.22 2.22 2.22 2.14 2.15 2.15 2.09 2.04 2.09 2.01 2.00 2.03 2.03 1.91 1.85 1.90 1.93 1.97 1.96 1.81 1.78 1.73 1.69 1.74 1.88 1.92 1.92 1.91 1.89
0.28 0.33 0.44 0.94 1.08 1.22 2.04 3.02 2.84 3.15 3.32 3.11 2.94 2.64 2.43 2.50 2.48 2.39 2.44 2.42 2.25 2.07 2.05 2.01 1.99 1.99 1.95 1.92 1.93 1.80 1.71 1.72 1.74 1.71 1.64 1.64 1.69 1.69 1.68 1.63 1.51 1.42 1.48 1.65 1.70 1.65 1.67 1.74 1.72